Location: Newark
(54.6833°N, 25.2833°E)
Time: 15:24:25
(UTC+00:00)

Envisat - Visible Passes

Search period start: 14 October 2019 00:00
Search period end: 24 October 2019 00:00
Orbit: 764 x 766 km, 98.1° (Epoch: 14 October)

Date Brightness Start Highest point End Pass type
(mag) Time Alt. Az. Time Alt. Az. Time Alt. Az.
14 Oct 3.2 16:16:19 10° S 16:21:24 77° WSW 16:26:32 10° NNW visible
14 Oct 6.0 17:58:34 10° WSW 18:01:19 14° W 18:04:05 10° NW visible
15 Oct 5.2 17:19:47 10° SSW 17:24:03 27° W 17:28:22 10° NW visible
16 Oct 6.4 03:43:13 10° ENE 03:45:19 12° E 03:47:24 10° ESE visible
16 Oct 4.0 16:42:04 10° S 16:47:00 49° W 16:51:58 10° NNW visible
17 Oct 3.0 16:05:03 10° SSE 16:10:08 89° E 16:15:16 10° NNW visible
17 Oct 5.9 17:46:32 10° SW 17:49:54 17° W 17:53:16 10° NW visible
18 Oct 6.0 04:07:34 10° NE 04:11:13 20° E 04:14:52 10° SE visible
18 Oct 4.9 17:08:10 10° SSW 17:12:41 32° W 17:17:15 10° NNW visible
19 Oct 3.6 16:30:40 10° S 16:35:41 60° WSW 16:40:45 10° NNW visible
19 Oct 6.3 18:14:31 10° W 18:15:49 11° W 18:17:08 10° WNW visible
20 Oct 3.0 15:53:48 10° SSE 15:58:53 75° ENE 16:03:58 10° NNW visible
20 Oct 5.6 17:34:40 10° SW 17:38:28 21° W 17:42:18 10° NW visible
21 Oct 6.1 03:56:38 10° NE 03:59:48 16° E 04:02:56 10° ESE visible
21 Oct 4.5 16:56:36 10° SSW 17:01:20 38° W 17:06:06 10° NNW visible
22 Oct 3.3 16:19:19 10° S 16:24:23 72° WSW 16:29:30 10° NNW visible
22 Oct 6.1 18:01:55 10° WSW 18:04:22 13° W 18:06:50 10° NW visible
23 Oct 5.7 04:21:28 10° NE 04:25:39 25° E 04:29:48 10° SE visible
23 Oct 3.0 15:42:37 10° SSE 15:47:38 63° ENE 15:52:40 10° N visible
23 Oct 5.3 17:22:55 10° SW 17:27:05 25° W 17:31:16 10° NW visible
